[[{"header":{"parameterUnit":"m.s-1","parameterCategory":1,"la1":30.2991,"la2":30.254,"lo1":-89.0895,"lo2":-89.0444,"dy":0.0017,"dx":0.0017,"nx":28,"ny":28,"refTime":"2024-04-09T09:00:00:Z","depth":0,"parameterNumber":2,"parameterNumberName":"U-component_of_WINDS"},"data":[0,0,0,0,0,0,0,0,0,0,0,0,0,0,0,0,0,0,0,0,0,0,0,0,0,0,0,0,0,0,0,0,0,0,0,0,0,0,0,0,0,0,0,0,0,0,0,0,0,0,0,0,0,0,0,0,0,0,-4.9295,-4.9296,0,-4.9439,-4.944,-4.9442,-4.9478,-4.9478,-4.9477,-4.9476,-4.9622,-4.9627,-4.9632,0,0,0,0,0,0,0,0,0,0,0,0,0,-4.905,-4.9054,-4.9294,-4.9296,-4.9298,-4.9438,-4.944,-4.9442,-4.9479,-4.9478,-4.9476,-4.9475,-4.9621,-4.9626,-4.9632,0,0,0,0,0,0,0,0,0,0,0,0,0,-4.9171,-4.9056,-4.9294,-4.9333,-4.9338,-4.9438,-4.944,-4.9443,-4.9479,-4.9477,-4.9476,-4.9475,-4.9619,-4.9626,-4.9633,-4.9704,0,0,-4.9655,-4.9658,0,0,0,0,0,0,0,0,-4.9164,-4.918,-4.9326,-4.9331,-4.9336,-4.9439,-4.9408,-4.953,-4.9479,-4.9425,-4.9476,-4.9474,-4.9562,-4.9574,-4.9604,-4.9711,-4.9717,-4.9655,-4.966,-4.9663,-4.9665,0,0,0,0,0,0,0,-4.9156,-4.9174,-4.9352,-4.9328,-4.9334,-4.9343,-4.9359,-4.9431,-4.95,-4.943,-4.9433,-4.945,-4.9565,-4.9597,-4.9608,-4.9719,-4.9655,-4.9661,-4.9666,-4.9669,-4.9891,-4.9893,0,0,0,0,0,0,-4.9141,-4.9167,-4.9347,-4.9356,-4.9245,-4.9349,-4.9366,-4.9408,-4.9499,-4.9512,-4.9451,-4.9451,-4.9586,-4.9599,-4.9613,-4.9701,-4.9663,-4.9669,-4.9673,-4.9889,-4.9891,-4.9893,0,0,0,0,0,0,-4.9136,-4.9157,-4.9341,-4.9262,-4.9287,-4.9354,-4.94,-4.9411,-4.9443,-4.9515,-4.9527,-4.9471,-4.9585,-4.9603,-4.9681,-4.9707,-4.9672,-4.9679,-4.9888,-4.989,-4.9892,-4.9879,0,0,0,0,0,0,-4.9128,-4.9155,-4.9182,-4.9263,-4.9291,-4.9407,-4.9402,-4.9415,-4.9455,-4.9457,-4.9537,-4.9549,-4.9585,-4.967,-4.9688,-4.9716,-4.9684,-4.9885,-4.9889,-4.9892,-4.9877,-4.9881,-4.9883,0,0,0,0,0,-4.912,-4.9173,-4.9184,-4.9205,-4.9327,-4.9408,-4.9424,-4.9465,-4.9457,-4.9486,-4.9532,-4.9546,-4.9702,-4.9678,-4.9698,-4.9729,-4.9884,-4.9888,-4.9891,-4.9876,-4.988,-4.9883,0,0,0,0,0,0,-4.9093,-4.9184,-4.9197,-4.9278,-4.9335,-4.9414,-4.9451,-4.9469,-4.9529,-4.9528,-4.9577,-4.9594,-4.9669,-4.9707,-4.9679,-4.9802,-4.9793,-4.9801,-4.9774,-4.9779,-4.9782,-4.977,-4.969,0,0,0,0,0,-4.9097,-4.9156,-4.9232,-4.9296,-4.9324,-4.9382,-4.9419,-4.9447,-4.9508,-4.9532,-4.9584,-4.9642,-4.9704,-4.9744,-4.9805,-4.9884,-4.9901,-4.9915,-4.9918,-4.992,-4.9926,-4.997,-4.9976,-4.9905,-4.9905,-4.9905,0,0,-4.9105,-4.9162,-4.9196,-4.9292,-4.9339,-4.9398,-4.9402,-4.9465,-4.9509,-4.9541,-4.9618,-4.9658,-4.9727,-4.9805,-4.9842,-4.9839,-4.995,-4.9925,-4.9926,-4.9931,-4.9974,-4.9981,-4.9987,-4.9908,-4.9907,-4.9907,0,0,-4.9149,-4.9199,-4.9257,-4.9305,-4.9377,-4.9415,-4.9429,-4.9506,-4.9534,-4.9612,-4.9637,-4.969,-4.9797,-4.9844,-4.9882,-4.9945,-4.996,-4.9964,-4.9979,-5.0021,-5.0027,-5.0032,-5.0053,-5.006,-4.997,-4.997,-4.997,0,-4.915,-4.924,-4.9284,-4.9346,-4.9387,-4.942,-4.9478,-4.9523,-4.9611,-4.9638,-4.9634,-4.9768,-4.9817,-4.9906,-4.9921,-4.9952,-4.9968,-4.9954,-5.0022,-5.0028,-5.0033,-5.0054,-5.0062,-4.997,-4.997,-4.997,-4.997,0,-4.9236,-4.9299,-4.9337,-4.9421,-4.9467,-4.9527,-4.958,-4.9621,-4.9645,-4.9684,-4.9762,-4.9822,-4.9896,-4.9919,-4.9943,-5.0012,-5.0008,-5.0013,-5.0004,-5.0039,-5.0059,-5.0068,-4.9969,-4.9969,-4.997,-4.997,0,0,-4.9267,-4.9375,-4.9388,-4.9427,-4.9509,-4.9558,-4.9619,-4.9691,-4.9725,-4.9785,-4.9837,-4.9927,-4.9931,-4.9975,-5.0004,-5.0041,-5.0086,-5.0041,-5.0044,-5.0046,-5.0164,-5.0159,-5.0167,-5.0097,-5.0099,-5.01,-5.0158,0,-4.932,-4.943,-4.9472,-4.9562,-4.962,-4.9652,-4.9705,-4.9761,-4.98,-4.9854,-4.9897,-4.9959,-4.9961,-4.9988,-5.0026,-5.0072,-5.011,-5.0069,-5.0145,-5.0147,-5.0124,-5.0178,-5.0173,-5.0224,-5.0166,-5.0168,-5.0169,0,-4.9396,-4.9457,-4.9552,-4.9627,-4.9653,-4.97,-4.9769,-4.9821,-4.9885,-4.9911,-4.9959,-4.9987,-5.0052,-5.004,-5.013,-5.0101,-5.0136,-5.0163,-5.0166,-5.0173,-5.0158,-5.0184,-5.0241,-5.0248,-5.0182,-5.0181,-5.018,0,-4.9406,-4.9512,-4.9583,-4.9615,-4.9704,-4.9736,-4.9775,-4.9838,-4.9879,-4.994,-4.9966,-5.0034,-5.007,-5.0122,-5.0167,-5.0155,-5.0252,-5.0245,-5.0274,-5.0273,-5.0292,-5.0289,-5.0353,-5.0317,-5.0317,-5.0317,-5.0316,0,-4.946,-4.9517,-4.9588,-4.9631,-4.9696,-4.9744,-4.9807,-4.9848,-4.9904,-4.9955,-4.9988,-5.0036,-5.0093,-5.0148,-5.0184,-5.0252,-5.0269,-5.029,-5.0299,-5.0286,-5.0283,-5.0308,-5.0305,-5.0319,-5.0318,-5.0318,-5.0317,0,-4.9481,-4.9532,-4.9611,-4.9689,-4.971,-4.9754,-4.9821,-4.9864,-4.9904,-4.9969,-4.9987,-5.0051,-5.0117,-5.0167,-5.0254,-5.0278,-5.035,-5.036,-5.0328,-5.0332,-5.0358,-5.0354,-5.0437,-5.045,-5.0407,-5.0407,-5.0407,0,-4.9511,-4.9556,-4.9639,-4.9675,-4.9714,-4.9773,-4.9815,-4.9864,-4.9906,-4.9982,-5.0016,-5.0085,-5.0142,-5.0247,-5.0301,-5.0367,-5.0378,-5.0402,-5.0388,-5.0373,-5.0376,-5.0372,-5.0376,-5.0403,-5.0404,-5.0404,-5.0404,0,-4.9559,-4.9581,-4.964,-4.9707,-4.9756,-4.9811,-4.9867,-4.9896,-4.9955,-5.0001,-5.0069,-5.0113,-5.0202,-5.0269,-5.0341,-5.0381,-5.0402,-5.0409,-5.0419,-5.0405,-5.0384,-5.0394,-5.0331,-5.0406,-5.0406,-5.0406,-5.0405,-5.0405,-4.9585,-4.9625,-4.9689,-4.9753,-4.9801,-4.9852,-4.9896,-4.9942,-5.0,-5.0075,-5.0102,-5.0172,-5.0235,-5.0334,-5.0374,-5.043,-5.043,-5.0445,-5.0448,-5.0451,-5.0449,-5.0377,-5.0443,-5.0443,-5.0443,-5.0443,-5.0443,0,-4.9632,-4.9675,-4.9734,-4.9811,-4.9861,-4.9878,-4.994,-4.9981,-5.0042,-5.01,-5.0156,-5.0234,-5.03,-5.0359,-5.0427,-5.046,-5.0472,-5.0476,-5.0473,-5.0482,-5.0445,-5.0429,-5.0466,-5.0466,-5.0466,-5.0466,-5.0466,-5.0466,-4.9663,-4.9732,-4.9762,-4.9855,-4.9898,-4.9967,-5.0001,-5.0049,-5.0095,-5.018,-5.0235,-5.0273,-5.0331,-5.0404,-5.0465,-5.0481,-5.0504,-5.0506,-5.0524,-5.0488,-5.0485,-5.0482,-5.0467,-5.0511,-5.0511,-5.0556,-5.0556,-5.0556]},{"header":{"parameterUnit":"m.s-1","parameterCategory":1,"la1":30.2991,"la2":30.254,"lo1":-89.0895,"lo2":-89.0444,"dy":0.0017,"dx":0.0017,"nx":28,"ny":28,"refTime":"2024-04-09T09:00:00:Z","depth":0,"parameterNumber":3,"parameterNumberName":"V-component_of_WINDS"},"data":[0,0,0,0,0,0,0,0,0,0,0,0,0,0,0,0,0,0,0,0,0,0,0,0,0,0,0,0,0,0,0,0,0,0,0,0,0,0,0,0,0,0,0,0,0,0,0,0,0,0,0,0,0,0,0,0,0,0,3.9167,3.9168,0,3.9237,3.9238,3.9238,3.9247,3.9246,3.9245,3.9245,3.9314,3.9316,3.9319,0,0,0,0,0,0,0,0,0,0,0,0,0,3.9041,3.9043,3.9167,3.9168,3.9169,3.9237,3.9238,3.9239,3.9247,3.9246,3.9245,3.9244,3.9313,3.9316,3.9319,0,0,0,0,0,0,0,0,0,0,0,0,0,3.9101,3.9044,3.9167,3.9181,3.9183,3.9237,3.9238,3.9239,3.9247,3.9246,3.9245,3.9244,3.9312,3.9316,3.9319,3.9362,0,0,3.9331,3.9332,0,0,0,0,0,0,0,0,3.9098,3.9106,3.9178,3.918,3.9183,3.9232,3.9218,3.928,3.9247,3.9223,3.9245,3.9244,3.9287,3.9293,3.9308,3.9366,3.9369,3.9331,3.9333,3.9335,3.9336,0,0,0,0,0,0,0,3.9094,3.9103,3.9195,3.9179,3.9182,3.9184,3.9191,3.923,3.926,3.9225,3.9226,3.9234,3.9288,3.9305,3.931,3.937,3.9331,3.9334,3.9336,3.9338,3.9468,3.9469,0,0,0,0,0,0,3.9087,3.9099,3.9192,3.9197,3.9137,3.9187,3.9195,3.9217,3.9259,3.9265,3.9235,3.9234,3.9299,3.9306,3.9312,3.9367,3.9335,3.9338,3.934,3.9467,3.9468,3.947,0,0,0,0,0,0,3.9084,3.9095,3.919,3.9148,3.9161,3.919,3.9215,3.9219,3.9236,3.9267,3.9272,3.9246,3.9298,3.9307,3.9351,3.9369,3.934,3.9343,3.9465,3.9467,3.9469,3.9476,0,0,0,0,0,0,3.9081,3.9094,3.9111,3.9149,3.9163,3.9227,3.9216,3.9221,3.9242,3.9242,3.9279,3.9284,3.9298,3.9345,3.9354,3.9374,3.9346,3.9464,3.9466,3.9468,3.9474,3.9477,3.9481,0,0,0,0,0,3.9076,3.9109,3.9112,3.9123,3.9185,3.9228,3.9236,3.9252,3.9244,3.9261,3.9281,3.9283,3.9366,3.9349,3.936,3.9381,3.9463,3.9465,3.9468,3.9472,3.9477,3.9481,0,0,0,0,0,0,3.9072,3.9114,3.9118,3.9164,3.9193,3.9229,3.9251,3.9256,3.9287,3.9285,3.9304,3.9312,3.9355,3.9372,3.9353,3.9426,3.9413,3.9418,3.9413,3.9417,3.9421,3.9416,3.9349,0,0,0,0,0,3.9076,3.9109,3.9144,3.9182,3.9196,3.9221,3.9241,3.9251,3.9281,3.9293,3.9316,3.9345,3.9377,3.9398,3.943,3.9476,3.9485,3.9496,3.95,3.9502,3.9506,3.9534,3.9539,3.9479,3.9479,3.9479,0,0,3.9086,3.9113,3.9132,3.9182,3.9205,3.9238,3.9231,3.9266,3.9291,3.9298,3.9341,3.9359,3.9392,3.9438,3.9459,3.9453,3.9525,3.9506,3.9508,3.951,3.9537,3.9543,3.9548,3.9481,3.948,3.948,0,0,3.912,3.9144,3.9179,3.9203,3.9238,3.9255,3.9264,3.93,3.9313,3.9357,3.9363,3.9393,3.9448,3.9472,3.9491,3.9537,3.954,3.9547,3.9564,3.9591,3.9595,3.96,3.9617,3.9623,3.9551,3.9551,3.9551,0,3.9128,3.9178,3.9196,3.9231,3.9253,3.9262,3.9298,3.932,3.9364,3.9378,3.9372,3.9443,3.9466,3.9518,3.9529,3.9544,3.9555,3.9542,3.9593,3.9598,3.9602,3.9619,3.9625,3.9551,3.9551,3.9551,3.9551,0,3.9186,3.9221,3.9245,3.9288,3.9313,3.9348,3.9371,3.9393,3.9402,3.942,3.9465,3.9492,3.9531,3.9544,3.9551,3.9597,3.9593,3.959,3.9578,3.9608,3.9624,3.9631,3.9552,3.9552,3.9552,3.9552,0,0,3.9219,3.9273,3.9282,3.9302,3.9343,3.937,3.9406,3.9445,3.9464,3.9494,3.9525,3.9573,3.9571,3.9593,3.9604,3.9627,3.9663,3.9621,3.9622,3.9628,3.9716,3.9719,3.9726,3.9665,3.9666,3.9667,3.9714,0,3.9259,3.9324,3.9342,3.9397,3.943,3.944,3.9471,3.9499,3.9517,3.9548,3.9567,3.9601,3.9595,3.9609,3.9632,3.9653,3.968,3.965,3.9694,3.9695,3.9686,3.9734,3.9737,3.9779,3.972,3.9721,3.9722,0,3.9314,3.9347,3.9406,3.9444,3.9458,3.9486,3.9524,3.9553,3.9585,3.9597,3.9622,3.9631,3.967,3.9655,3.9708,3.9687,3.9707,3.972,3.9722,3.9727,3.9711,3.9741,3.9793,3.9799,3.9731,3.9731,3.973,0,3.9334,3.9393,3.9436,3.9453,3.9498,3.9518,3.9537,3.9569,3.9592,3.9624,3.9639,3.9675,3.9695,3.9723,3.9742,3.973,3.9794,3.9781,3.9804,3.9804,3.9818,3.9817,3.9874,3.9829,3.9829,3.9829,3.9828,0,3.9377,3.9413,3.9446,3.9472,3.9513,3.9533,3.9572,3.9592,3.9621,3.9651,3.9661,3.969,3.9713,3.9745,3.9759,3.9802,3.981,3.9821,3.9824,3.982,3.9819,3.9833,3.9831,3.983,3.983,3.983,3.9829,0,3.9406,3.9429,3.9477,3.9517,3.9527,3.9556,3.9589,3.9616,3.9634,3.9673,3.9683,3.9712,3.975,3.9772,3.9819,3.9829,3.9877,3.9878,3.9866,3.9868,3.989,3.9888,3.9959,3.997,3.9917,3.9918,3.9918,0,3.9433,3.9461,3.9504,3.9525,3.9546,3.958,3.9604,3.9624,3.9648,3.9689,3.971,3.9749,3.9781,3.9842,3.9867,3.9904,3.9907,3.9929,3.9912,3.9908,3.9908,3.9907,3.991,3.9932,3.9933,3.9933,3.9933,0,3.9478,3.9488,3.9522,3.956,3.9588,3.9619,3.965,3.9667,3.9693,3.9719,3.9759,3.9784,3.9833,3.9872,3.9911,3.9931,3.9937,3.9939,3.9946,3.9943,3.9935,3.994,3.9875,3.9937,3.9936,3.9936,3.9936,3.9936,3.9507,3.9533,3.9568,3.9605,3.9631,3.9659,3.9687,3.9709,3.9743,3.9785,3.9795,3.9837,3.987,3.9923,3.9945,3.9978,3.9974,3.9984,3.9987,3.999,3.9991,3.9929,3.9985,3.9984,3.9984,3.9984,3.9984,0,3.9554,3.9577,3.9611,3.9654,3.9684,3.9688,3.9722,3.9747,3.9784,3.9814,3.9846,3.9892,3.993,3.9959,3.9998,4.0019,4.0023,4.0028,4.0027,4.0032,3.9992,3.9982,4.0025,4.0025,4.0025,4.0025,4.0025,4.0025,3.9582,3.9626,3.9641,3.9698,3.9721,3.9763,3.9782,3.9809,3.9834,3.9885,3.9917,3.9935,3.9966,4.0007,4.0042,4.005,4.0064,4.0069,4.0077,4.0039,4.0035,4.0031,4.0021,4.0072,4.0072,4.0115,4.0115,4.0116]}]]